Location: Fort Collins
(40.5850°N, 105.0840°W)
Time: 07:27:18
(UTC-06:00)

Daily predictions for brighter satellites

Satellite Brightness Start Highest point End
(mag) Time Altitude Azimuth Time Altitude Azimuth Time Altitude Azimuth
Cosmos 407 Rocket 3.8 20:18:49 10° N 20:24:06 54° ENE 20:29:17 10° SE
Cosmos 1190 Rocket 4.1 20:19:40 10° NNW 20:24:54 61° ENE 20:30:06 10° SSE
HJ-1C 4.3 20:22:07 10° S 20:25:27 52° W 20:28:48 10° NNW
EXPRESS MD2 3.6 20:23:31 10° SSW 20:25:38 26° SE 20:28:45 10° ENE
Resurs 1-3 3.7 20:21:21 10° SSE 20:25:40 62° ENE 20:30:01 10° N
Cosmos 44 4.3 20:24:01 10° N 20:27:49 27° NE 20:31:42 10° ESE
ATLAS 2AS CENTAUR R/B 4.3 20:25:06 10° SE 20:29:06 15° ESE 20:33:13 10° ENE
DELTA 2 R/B (1) 3.6 20:24:36 10° W 20:30:14 80° S 20:35:51 10° E
Cosmos 1908 Rocket 4.3 20:26:25 10° SSW 20:30:45 59° W 20:35:04 10° N
Helios 1A 4.3 20:29:16 10° ESE 20:32:38 23° ENE 20:36:00 10° NNE
GPS 2-05 Rocket1 4.2 20:30:05 10° SW 20:32:43 21° SSE 20:35:11 10° ESE
BREEZE-M DEB (TANK) 3.1 20:31:26 10° NW 20:34:24 78° NNE 20:45:26 10° ESE
Cosmos 1092 Rocket 4.3 20:28:53 10° SSW 20:35:00 75° W 20:41:12 10° N
NOSS 3-1 (A) 3.3 20:29:21 10° SSW 20:35:00 71° ESE 20:41:22 10° NE
Cosmos 2322 Rocket 3.4 20:31:47 10° SSE 20:35:58 21° E 20:40:10 10° NE
Meteor 1-20 Rocket 4.2 20:31:17 10° S 20:36:52 78° E 20:42:23 10° NNE
Cosmos 1441 Rocket 3.1 20:33:09 10° N 20:36:55 79° E 20:40:38 10° SSE
Cosmos 405 Rocket 3.3 20:35:48 10° NNW 20:39:32 59° W 20:43:20 10° S
Cosmos 2263 Rocket 3.9 20:36:12 10° N 20:40:07 18° NE 20:43:59 10° E
Cosmos 676 Rocket 4.3 20:35:33 10° N 20:40:43 50° ENE 20:45:53 10° SE
Abrixas rocket 3.2 20:38:58 10° W 20:42:08 46° NNW 20:45:20 10° NE
SL-16 R/B 3.2 20:39:54 10° SSE 20:44:25 25° ESE 20:48:58 10° NE
S3M 4.4 20:41:22 10° N 20:47:21 45° ENE 20:53:21 10° SSE
Resurs 01 Rocket 2.1 20:45:01 10° S 20:49:25 66° W 20:53:52 10° NNW
CZ-4B DEB 4.3 20:50:11 15° E 20:51:10 17° ENE 20:53:07 10° NNE
Cosmos 1553 Rocket 4.1 20:45:42 10° N 20:51:45 53° E 20:57:40 10° SSE
Spot 2 Rocket 3.8 20:51:43 10° S 20:56:48 69° WSW 21:01:54 10° NNW
Iridium 30 4.4 20:55:27 10° S 20:58:19 75° W 21:01:48 10° N
SJ-11-01 4.3 20:55:03 10° SSE 20:59:40 66° ENE 21:04:19 10° N
Okean 1 Rocket 4.4 21:01:25 18° ESE 21:02:44 20° E 21:05:56 10° NE
SeaSat 1 2.9 20:58:24 10° NNE 21:03:19 68° WNW 21:08:12 10° SW
Atlas Centaur 2 3.5 20:56:22 10° WSW 21:03:19 35° S 21:07:34 18° ESE
Cosmos 1954 Rocket 4.1 20:59:16 10° NNW 21:04:34 68° ENE 21:09:00 15° SSE
Cosmos 1140 Rocket 3.7 20:59:39 10° N 21:04:49 57° ENE 21:08:46 17° SE
H-2A R/B 3.8 21:03:03 13° E 21:05:08 16° ENE 21:08:08 10° NNE
Meteor 2-11 Rocket 4.4 20:59:47 10° N 21:05:54 84° E 21:11:58 10° S
NOSS 3-1 (C) 4.3 21:00:22 10° SW 21:05:59 53° NW 21:12:21 10° NNE
Meteor 1-29 3.8 21:03:22 10° NE 21:06:25 29° E 21:07:40 23° SE
Tiangong 1 1.3 21:05:04 10° W 21:07:47 54° N 21:09:33 19° ENE
CZ-4C R/B 3.8 21:01:27 10° NW 21:08:26 48° WSW 21:16:01 10° S
Cosmos 2151 Rocket 3.5 21:06:22 10° S 21:10:42 69° E 21:15:05 10° NNE
Cosmos 2360 Rocket 3.7 21:12:27 16° E 21:12:27 16° E 21:15:32 10° ENE
Cosmos 1980 Rocket 2.7 21:07:13 10° SW 21:12:46 64° WNW 21:18:21 10° NNE
Cosmos 1300 Rocket 4.0 21:10:26 17° SSE 21:13:18 39° E 21:17:19 10° NNE
Cosmos 44 Rocket 3.2 21:08:35 10° NNW 21:13:20 77° ENE 21:16:28 22° SE
Meteor 2-4 Rocket 4.0 21:08:19 10° N 21:13:38 47° ENE 21:17:17 20° SE
USA 186 3.7 21:11:23 10° SSW 21:14:19 30° W 21:17:21 10° NNW
Cosmos 614 Rocket 4.0 21:12:18 10° NNW 21:17:23 62° ENE 21:20:38 22° SE
Cosmos 921 Rocket 4.1 21:14:15 10° SW 21:18:16 45° WNW 21:22:18 10° N
ERBS 2.4 21:17:31 10° SW 21:20:59 79° NW 21:24:28 10° NE
YAOGAN 6 2.5 21:18:33 19° SSE 21:20:59 90° W 21:24:32 10° NNW
Cosmos 1655 Rocket 4.3 21:17:19 10° SSW 21:23:32 69° W 21:29:52 10° N
Cosmos 1633 4.2 21:20:58 10° SSW 21:24:18 36° WNW 21:27:41 10° N
Envisat 3.9 21:20:50 10° S 21:25:43 47° W 21:30:38 10° NNW
NOAA 11 4.3 21:24:56 22° SE 21:28:24 61° ENE 21:33:50 10° N
ERS-1 Rocket 3.2 21:26:00 26° SE 21:28:40 54° ENE 21:33:34 10° N
Cosmos 1025 Rocket 4.1 21:25:10 10° NNE 21:28:44 25° ENE 21:29:13 25° E
SPOT 5 3.9 21:27:38 25° E 21:29:13 30° ENE 21:33:22 10° N
Spot 1 4.5 21:27:27 19° SSE 21:31:12 85° ENE 21:36:21 10° NNW
Meteor 1-11 Rocket 3.7 21:26:32 10° S 21:32:26 86° E 21:38:14 10° N
Helios 1B rocket 2.5 21:35:11 10° N 21:39:16 76° WNW 21:43:22 10° SSW
Cosmos 1939 Rocket 4.2 21:35:37 10° SSW 21:39:22 37° W 21:43:05 10° NNW
BREEZE-M DEB (TANK) 2.7 21:39:43 10° W 21:42:31 35° NNW 21:43:09 28° N
Cosmos 1536 Rocket 3.8 21:38:16 10° NNW 21:42:34 67° W 21:45:12 23° S
NOSS 2-3 (D) 3.7 21:47:58 10° SSW 21:52:32 66° ESE 21:57:48 10° NE
ATLAS 3B R/B 3.7 21:46:36 10° NNW 21:52:39 33° NE 21:55:33 23° E
Cosmos 1110 Rocket 4.4 21:53:08 38° E 21:53:08 38° E 21:57:52 10° NE
Cosmos 1536 3.0 21:51:39 23° SSW 21:54:04 70° W 21:58:09 10° N
Centaur D AC-29 4.4 21:56:01 10° SSW 21:57:49 11° S 21:58:07 11° S
Cosmos 1850 Rocket 4.0 21:54:40 10° NNW 22:00:02 84° WSW 22:01:57 41° SSE
Lacrosse 5 rocket 1.6 21:56:29 10° NW 22:00:06 49° SW 22:00:24 48° SSW
SPOT 1/Viking Rocket 3.8 22:04:46 47° ESE 22:05:41 53° ENE 22:10:45 10° N
Meteor 1-23 Rocket 4.1 22:01:00 10° N 22:06:35 84° W 22:08:46 39° S
GENESIS II 4.1 22:03:08 10° NW 22:07:04 74° WSW 22:07:07 74° SW
Cosmos 883 Rocket 4.5 22:01:36 10° N 22:07:43 80° W 22:10:47 32° S
Cosmos 44 4.4 22:05:01 10° NW 22:09:00 33° WSW 22:10:25 27° SSW
Cosmos 1331 Rocket 4.2 22:11:20 49° E 22:11:20 49° E 22:16:02 10° NNE
MetOp-A 4.3 22:09:08 36° S 22:11:18 70° WSW 22:16:39 10° NNW
Cosmos 1244 Rocket 4.4 22:14:20 48° SSE 22:15:52 63° E 22:21:56 10° NNE
DELTA 2 R/B (1) 4.0 22:11:07 10° W 22:16:28 46° SSW 22:16:56 45° S
ATLAS 2AS CENTAUR R/B 2.9 22:11:10 10° SSW 22:18:47 78° ESE 22:26:55 10° NE
Cosmos 2322 Rocket 2.9 22:14:01 10° SW 22:19:34 53° WNW 22:25:10 10° NNE
Landsat 7 4.2 22:20:57 48° ENE 22:20:57 48° ENE 22:25:21 10° N
Cosmos 2263 Rocket 2.3 22:18:57 10° NNW 22:24:39 73° WSW 22:25:54 54° S
ARGOS 3.3 22:23:24 45° SSW 22:24:56 65° WSW 22:30:17 10° NNW
Okean 2 3.6 22:22:27 10° N 22:26:05 68° NNW 22:26:05 68° NNW
SL-16 R/B 3.2 22:22:48 10° SW 22:28:13 45° WNW 22:33:39 10° NNE
Cosmos 1515 4.5 22:25:16 10° N 22:28:05 48° N 22:28:05 48° N
NOSS 2-3 (E) 4.4 22:25:13 10° SW 22:29:50 58° NW 22:35:14 10° NNE
YAOGAN 11 4.2 22:32:20 71° W 22:32:20 71° W 22:36:34 10° NNW
Cosmos 1844 Rocket 3.8 22:28:51 10° N 22:33:51 31° ENE 22:34:09 31° ENE
Cosmos 2322 3.6 22:34:24 68° E 22:34:24 68° E 22:39:51 10° NNE
Cosmos 2315 Rocket 4.2 22:28:56 10° NNW 22:35:07 67° W 22:37:15 42° SSW
Okean 1-7 Rocket 3.9 22:31:26 10° NNW 22:35:50 59° W 22:35:55 59° W
Terra 2.4 22:36:46 45° NE 22:36:46 45° NE 22:40:40 10° N
COSMOS 2428 3.9 22:42:03 29° ENE 22:42:03 29° ENE 22:45:10 10° NE
SL-08 R/B 4.4 22:41:31 65° ESE 22:41:53 66° E 22:48:10 10° NNE
Cosmos 2219 Rocket 4.2 22:47:13 16° ENE 22:47:13 16° ENE 22:48:34 10° NE
H-2A R/B 2.2 22:43:41 62° SW 22:44:03 64° WSW 22:49:04 10° NNW
Atlas Centaur 2 3.7 22:45:59 10° WSW 22:50:12 26° SW 22:50:12 26° SW
Cosmos 2333 Rocket 4.3 22:57:37 14° NE 22:57:37 14° NE 22:58:41 10° NE
Cosmos 2360 Rocket 2.4 22:54:08 49° WSW 22:55:30 66° WNW 23:01:08 10° NNE
Cosmos 1238 Rocket 4.1 22:50:52 10° N 22:57:37 78° W 22:58:34 66° SSW
Cosmos 1607 4.2 22:54:48 10° NW 23:01:07 58° WSW 23:01:37 56° SW
SPOT 5 4.3 23:06:53 30° WSW 23:07:11 30° W 23:11:26 10° NW
Cosmos 1745 Rocket 3.8 23:10:11 83° NNE 23:10:11 83° NNE 23:16:07 10° N
Meteor 1-12 Rocket 4.3 23:11:32 71° WNW 23:11:32 71° WNW 23:16:58 10° N
H-2A R/B 3.7 23:13:40 31° N 23:13:40 31° N 23:16:03 10° N
USA 238 DEB 3.6 23:09:13 10° NW 23:16:21 87° NE 23:16:40 83° ESE
USA 238 3.6 23:09:19 10° NW 23:16:28 86° NE 23:16:46 82° ESE
NOSS 3-2 (A) 4.3 23:10:08 10° NNW 23:17:28 54° NE 23:18:44 50° E
Lacrosse 5 3.0 23:20:53 39° NNE 23:20:53 39° NNE 23:24:21 10° NE
Cosmos 2237 Rocket 4.3 23:26:43 16° NE 23:26:43 16° NE 23:27:57 10° NE
BREEZE-M (TANK) 3.9 23:18:27 10° WNW 23:26:14 53° NNW 23:26:14 53° NNW
ATLAS 3B R/B 3.1 23:37:08 10° NW 23:42:47 51° W 23:42:47 51° W
